Overview Statistics Trail Chart Weather Telemetry Raw packets
 

This is the latest recevied weather packets stored in our database for station/object WS4FSC-7. If no packets are shown the sender has not sent any weather packets the latest 10 day(s).

<< 14 15 16 17 18 19 20 >>
Time Temp. Humidity Pressure Rain* Wind** Luminosity Snow
1788453531 30.56° C - - - - - -
1788452991 30.56° C 80% 1014 hPa - - 204 W/m² -
1788451911 30.56° C 79% 1014 hPa - - 638 W/m² -
1788451551 30.56° C 81% 1014 hPa - - 753 W/m² -
1788451011 30.56° C 83% 1014 hPa - - 786 W/m² -
1788450470 30.56° C 83% 1014 hPa - - 537 W/m² -
1788450291 30° C 84% 1014 hPa - - 283 W/m² -
1788450110 30° C 82% 1014 hPa - - 549 W/m² -
1788449930 30° C 84% 1014 hPa - - 617 W/m² -
1788449750 29.44° C 84% 1014 hPa - - 636 W/m² -
1788449392 28.89° C 86% 1014 hPa - - 564 W/m² -
1788449031 28.89° C 88% 1014 hPa - - 476 W/m² -
1788448310 28.33° C 86% 1014 hPa - - 124 W/m² -
1788448131 27.78° C 85% 1014 hPa - - 107 W/m² -
1788447951 28.33° C 85% 1014 hPa - - 82 W/m² -
1788447410 30.56° C 80% 1014 hPa - - 82 W/m² -
1788447231 30.56° C 77% 1014 hPa - - 92 W/m² -
1788447050 31.11° C 75% 1014 hPa - - 89 W/m² -
1788446870 31.11° C 76% 1014 hPa - - 105 W/m² -
1788446330 31.11° C 77% 1014 hPa - - 103 W/m² -
1788445617 31.67° C 76% 1014 hPa - - 233 W/m² -
1788444711 31.11° C 80% 1014 hPa - - 630 W/m² -
1788444171 31.11° C 81% 1014 hPa - - 530 W/m² -
1788443810 30.56° C 83% 1014 hPa - - 458 W/m² -
1788442910 30.56° C 84% 1014 hPa - - 119 W/m² -

* Rain since midnight (hover to see other rain measurements)
** Current wind speed in m/s (hover to see current wind gust speed)